Notices

What's New in latest Release from April 7th, 2021:

- Updated Glossary, including Speed of Maximum Gust, and Total Hourly Precipitation

- Updated national and regional climate services offices contacts and prices information

- Addition of station inventory lists for 1981-2010, 1971-2000, and 1961-1990 Normals.

Please note that as of June 10, 2021 UTC dates are available for all years 2004-present, and DBA is working on populating the remaining years (2003 to 1953).

If you haven't already, please take our survey and provide feedback about our website: https://eccc.sondage-survey.ca/f/LanguageSelection.aspx?s=442ca660-fcf1-47c0-95a9-59707d6fd709

Hourly Data Report for August 27, 2018

TORONTO CITY
ONTARIO
Current Station Operator: ECCC - MSC

43°40'00.000" N
79°24'00.000" W
112.50 m
6158355
71508
XTO

Download Data

Hourly Data (August 2018)
Hourly Data Report for August 27, 2018
TIME
LST
Temp Definition
°C
Dew Point Definition
°C
Rel Hum Definition
%
Precip. Amount Definition
mm

Wind Dir Definition
10's deg

Wind Spd Definition
km/h
Visibility Definition
km
Stn Press Definition
kPa
Hmdx Definition


Wind Chill Definition


Weather Definition


00:00 21.9 17.8 77 0.0 LegendMM LegendMM   100.40 28   LegendNANA
01:00 21.7 17.4 77 0.0 LegendMM LegendMM   100.34 27   LegendNANA
02:00 21.4 17.7 79 0.0 LegendMM LegendMM   100.31 27   LegendNANA
03:00 22.3 17.6 75 0.0 LegendMM LegendMM   100.28 28   LegendNANA
04:00 22.2 17.8 76 0.0 LegendMM LegendMM   100.32 28   LegendNANA
05:00 21.9 17.8 77 0.0 LegendMM LegendMM   100.32 28   LegendNANA
06:00 22.1 18.5 80 0.0 LegendMM LegendMM   100.38 28   LegendNANA
07:00 22.6 18.8 79 0.0 LegendMM LegendMM   100.29 29   LegendNANA
08:00 22.0 19.2 84 0.3 LegendMM LegendMM   100.49 29   LegendNANA
09:00 22.2 19.9 87 2.8 LegendMM LegendMM   100.34 30   LegendNANA
10:00 24.5 20.5 78 0.0 LegendMM LegendMM   100.35 32   LegendNANA
11:00 24.3 20.2 78 0.0 LegendMM LegendMM   100.32 32   LegendNANA
12:00 24.1 20.0 78 0.0 LegendMM LegendMM   100.28 32   LegendNANA
13:00 24.9 19.7 73 0.0 LegendMM LegendMM   100.17 32   LegendNANA
14:00 25.4 20.0 72 0.0 LegendMM LegendMM   100.17 33   LegendNANA
15:00 26.2 21.2 74 0.0 LegendMM LegendMM   100.12 35   LegendNANA
16:00 26.6 21.7 74 0.0 LegendMM LegendMM   100.08 36   LegendNANA
17:00 26.7 21.9 75 0.0 LegendMM LegendMM   100.03 36   LegendNANA
18:00 26.7 21.4 72 0.0 LegendMM LegendMM   99.99 35   LegendNANA
19:00 26.4 21.2 73 0.0 LegendMM LegendMM   99.94 35   LegendNANA
20:00 25.6 20.8 75 0.0 LegendMM LegendMM   99.96 34   LegendNANA
21:00 25.4 20.5 75 0.0 LegendMM LegendMM   99.99 33   LegendNANA
22:00 25.1 20.6 76 0.0 LegendMM LegendMM   100.06 33   LegendNANA
23:00 24.4 20.5 79 0.0 LegendMM LegendMM   100.04 32   LegendNANA

Notes on Data Quality.

Legend

  • E = Estimated
  • M = Missing
  • NA = Not Available*
  • [empty] = Indicates an unobserved value
Date modified: